Location: Chandrammap?lem
(16.9200°N, 81.0051°E)
Time: 03:01:59
(UTC+00:00)

CZ-4B R/B - Pass Details

Date: 29 May 2024
Orbit: 808 x 881 km, 99.0° (Epoch: 17 June)

Event Time Altitude Azimuth Distance (km) Brightness Sun altitude
Exits shadow 14:47:14 36° 173° (S) 1,286 3.8 -22.4°
Maximum altitude 14:49:32 83° 257° (WSW) 828 3.1 -22.9°
Drops below altitude 10° 14:54:50 10° 345° (NNW) 2,395 6.2 -24.0°
Sets 14:57:10 0° 346° (NNW) 3,323 7.0 -24.4°
